Date String (YYYY-MM-DD hh:mm:ss) UTC,Instrument flags,Ambient pressure (hPa),Sample flow (lpm),Bypass flow (lpm),Sample temperature (°C),Ambient temperature (°C),ASC tube jacket temperature (°C),LED temperature (°C),Box temperature (°C),Sample RH (%),Span deviation,Mass concentration (μg/m³),Mass concentration (μg/m³),Mass concentration (μg/m³)
DateTimeUTC,F1_M11,P_M11,Q1_M11,Q2_M11,T1_M11,T2_M11,T3_M11,T4_M11,T5_M11,U1_M11,ZSPAN_M11,X0_M11,X2_M11,X1_M11
2022-11-13 13:00:00,,0820.2,5.01,0.00,22.3,21.6,00.0,31.1,24.3,09.0,0002.7,0020.17,0010.40,0009.30
2022-11-13 13:01:00,,0820.2,4.98,0.00,22.4,22.4,00.0,31.1,24.5,08.9,0000.5,0020.44,0010.43,0009.29
2022-11-13 13:02:00,,0820.2,5.00,0.00,22.5,22.4,00.0,31.2,24.5,08.9,0000.4,0020.12,0010.39,0009.28
2022-11-13 13:03:00,,0820.2,5.02,0.00,22.5,21.9,00.0,31.2,24.4,08.9,0000.6,0019.92,0010.39,0009.28
2022-11-13 13:04:00,,0820.2,5.00,0.00,22.5,21.6,00.0,31.2,24.4,08.9,0001.3,0019.54,0010.41,0009.28
2022-11-13 13:05:00,,0820.2,4.99,0.00,22.5,21.5,00.0,31.2,24.4,08.9,0002.7,0019.36,0010.39,0009.27
2022-11-13 13:06:00,,0820.3,5.00,0.00,22.5,21.4,00.0,31.2,24.3,08.9,0002.6,0018.34,0010.36,0009.24
2022-11-13 13:07:00,,0820.2,5.02,0.00,22.5,21.3,00.0,31.2,24.3,08.9,0001.9,0018.52,0010.32,0009.21
2022-11-13 13:08:00,,0820.2,4.97,0.00,22.5,21.3,00.0,31.3,24.3,08.9,0000.7,0018.55,0010.29,0009.19
2022-11-13 13:09:00,,0820.2,5.01,0.00,22.5,21.2,00.0,31.3,24.3,08.8,0000.5,0018.33,0010.26,0009.17
2022-11-13 13:10:00,,0820.2,5.00,0.00,22.4,21.0,00.0,31.3,24.3,08.8,-000.1,0018.34,0010.24,0009.14
2022-11-13 13:11:00,,0820.2,4.99,0.00,22.4,20.9,00.0,31.3,24.2,08.8,-000.1,0017.68,0010.15,0009.10
2022-11-13 13:12:00,,0820.2,5.01,0.00,22.4,20.7,00.0,31.3,24.2,08.8,0000.6,0017.26,0010.08,0009.06
2022-11-13 13:13:00,,0820.2,5.01,0.00,22.3,20.5,00.0,31.2,24.1,08.9,0000.5,0018.56,0010.04,0009.02
2022-11-13 13:14:00,,0820.2,4.98,0.00,22.3,20.4,00.0,31.2,24.0,08.8,0000.1,0019.66,0010.00,0008.98
2022-11-13 13:15:00,,0820.2,5.01,0.00,22.3,20.4,00.0,31.2,24.0,08.9,0000.0,0019.83,0009.98,0008.96
2022-11-13 13:16:00,,0820.2,5.00,0.00,22.2,20.4,00.0,31.2,24.0,08.9,-000.9,0020.00,0010.01,0008.94
2022-11-13 13:17:00,,0820.2,4.98,0.00,22.2,20.4,00.0,31.2,24.0,08.9,-000.1,0020.05,0010.01,0008.91
2022-11-13 13:18:00,,0820.2,5.02,0.00,22.2,20.4,00.0,31.2,24.0,08.9,-000.5,0019.66,0010.00,0008.86
2022-11-13 13:19:00,,0820.2,5.00,0.00,22.2,20.4,00.0,31.1,23.9,08.9,-000.1,0018.91,0009.90,0008.79
2022-11-13 13:20:00,,0820.2,5.01,0.00,22.2,20.9,00.0,31.1,24.0,08.9,0000.8,0019.55,0009.84,0008.75
2022-11-13 13:21:00,,0820.1,5.00,0.00,22.3,21.8,00.0,31.1,24.2,08.9,0000.9,0019.33,0009.80,0008.74
2022-11-13 13:22:00,,0820.3,5.00,0.00,22.4,22.1,00.0,31.1,24.4,08.9,0001.3,0020.43,0009.77,0008.73
2022-11-13 13:23:00,,0820.2,4.99,0.00,22.4,21.9,00.0,31.1,24.3,09.0,0001.9,0021.82,0009.75,0008.72
2022-11-13 13:24:00,,0820.2,5.00,0.00,22.4,21.5,00.0,31.1,24.3,09.0,0002.4,0021.58,0009.77,0008.74
2022-11-13 13:25:00,,0820.2,5.00,0.00,22.3,21.2,00.0,31.1,24.2,09.0,0001.2,0020.66,0009.76,0008.76
2022-11-13 13:26:00,,0820.2,5.00,0.00,22.3,21.0,00.0,31.1,24.1,09.0,0001.1,0020.42,0009.74,0008.74
2022-11-13 13:27:00,,0820.2,5.00,0.00,22.3,20.9,00.0,31.1,24.1,08.9,0002.2,0021.95,0009.66,0008.70
2022-11-13 13:28:00,,0820.2,5.02,0.00,22.3,20.8,00.0,31.1,24.1,09.0,0000.8,0022.13,0009.60,0008.68
2022-11-13 13:29:00,,0820.2,4.99,0.00,22.3,20.6,00.0,31.1,24.0,08.9,0000.5,0021.91,0009.55,0008.66
2022-11-13 13:30:00,,0820.0,4.99,0.00,22.2,20.5,00.0,31.1,23.9,08.6,0000.6,0021.77,0009.44,0008.58
2022-11-13 13:31:00,,0820.0,5.02,0.00,22.1,20.3,00.0,31.1,23.9,08.5,0000.0,0021.00,0009.24,0008.42
2022-11-13 13:32:00,,0820.0,4.99,0.00,22.1,20.1,00.0,31.1,23.8,08.6,-000.6,0020.73,0009.05,0008.26
2022-11-13 13:33:00,,0819.9,4.99,0.00,22.0,20.1,00.0,31.1,23.8,08.4,-000.7,0019.39,0008.81,0008.02
2022-11-13 13:34:00,,0819.9,5.00,0.00,22.0,20.1,00.0,31.0,23.8,08.3,-000.6,0017.52,0008.41,0007.66
2022-11-13 13:35:00,,0819.9,5.00,0.00,22.0,20.1,00.0,31.0,23.7,08.3,-001.0,0015.94,0007.94,0007.26
2022-11-13 13:36:00,,0819.9,5.01,0.00,22.0,20.8,00.0,31.0,23.9,08.0,-000.2,0014.90,0007.43,0006.78
2022-11-13 13:37:00,,0819.9,5.00,0.00,22.1,21.8,00.0,30.9,24.1,08.1,-000.1,0014.46,0006.89,0006.31
2022-11-13 13:38:00,,0819.9,4.99,0.00,22.2,22.0,00.0,31.0,24.2,08.2,-000.5,0013.30,0006.32,0005.82
2022-11-13 13:39:00,,0819.9,5.01,0.00,22.2,21.5,00.0,31.0,24.1,08.1,0000.3,0012.53,0005.82,0005.39
2022-11-13 13:40:00,,0819.9,5.01,0.00,22.2,21.1,00.0,31.0,24.0,08.0,0000.8,0011.95,0005.38,0004.95
2022-11-13 13:41:00,,0820.0,5.01,0.00,22.1,20.6,00.0,31.0,23.9,08.2,-000.1,0011.49,0005.10,0004.68
2022-11-13 13:42:00,,0819.9,4.98,0.00,22.0,20.3,00.0,31.0,23.7,08.4,-000.7,0010.98,0004.95,0004.54
2022-11-13 13:43:00,,0819.9,5.02,0.00,22.0,20.0,00.0,31.0,23.6,08.1,-000.3,0010.76,0004.75,0004.34
2022-11-13 13:44:00,,0819.9,5.01,0.00,21.9,19.9,00.0,30.9,23.5,08.1,0000.0,0010.23,0004.43,0004.07
2022-11-13 13:45:00,,0819.9,5.00,0.00,21.8,19.9,00.0,30.9,23.5,08.1,0000.0,0009.87,0004.22,0003.87
2022-11-13 13:46:00,,0819.9,5.00,0.00,21.8,19.9,00.0,30.9,23.4,08.2,0000.0,0009.65,0004.04,0003.70
2022-11-13 13:47:00,,0819.9,5.00,0.00,21.8,19.9,00.0,30.9,23.4,08.1,0000.0,0009.50,0003.91,0003.59
2022-11-13 13:48:00,,0820.0,5.00,0.00,21.8,20.4,00.0,30.8,23.5,08.1,0000.0,0008.83,0003.80,0003.47
2022-11-13 13:49:00,,0819.9,4.99,0.00,21.9,21.6,00.0,30.8,23.8,08.2,0000.0,0007.10,0003.78,0003.43
2022-11-13 13:50:00,,0819.9,5.00,0.00,22.0,22.2,00.0,30.8,24.0,08.1,0000.0,0006.33,0003.65,0003.30
2022-11-13 13:51:00,,0819.9,5.00,0.00,22.0,21.7,00.0,30.8,24.0,08.1,0000.0,0006.62,0003.50,0003.21
2022-11-13 13:52:00,,0819.8,5.00,0.00,22.0,21.3,00.0,30.8,23.9,08.0,0000.0,0006.73,0003.29,0002.97
2022-11-13 13:53:00,,0820.0,4.99,0.00,22.0,21.0,00.0,30.9,23.8,07.9,0000.0,0005.92,0002.87,0002.45
2022-11-13 13:54:00,,0819.9,5.00,0.00,22.0,20.8,00.0,30.9,23.7,07.9,0000.0,0005.81,0002.38,0002.01
2022-11-13 13:55:00,,0819.9,5.01,0.00,22.0,20.7,00.0,30.9,23.7,08.0,0000.0,0005.32,0002.12,0001.80
2022-11-13 13:56:00,,0820.0,5.00,0.00,21.9,20.5,00.0,30.9,23.6,08.0,0000.0,0005.04,0002.07,0001.78
2022-11-13 13:57:00,,0819.9,5.00,0.00,21.9,20.4,00.0,30.8,23.6,07.9,0000.0,0005.05,0002.04,0001.76
2022-11-13 13:58:00,,0819.9,4.99,0.00,21.9,20.3,00.0,30.8,23.6,08.0,0000.0,0005.68,0002.03,0001.76
2022-11-13 13:59:00,,0819.9,5.01,0.00,21.8,20.2,00.0,30.8,23.6,08.1,0000.0,0005.77,0002.06,0001.81
